TRA853Z EHRD-LEZL

Flight info

Callsign TRA853Z
Flight time 2h 31m
Altitude 37000
Route WOODY N872 CIV DCT KOVIN DCT DUCRA DCT RESMI DCT DEKOD DCT DISAK DCT ARKIP DCT ARNAV DCT LMG DCT UVELI DCT OSMOB DCT ARVID DCT PPN DCT NOLSA DCT ALEPO DCT VASUM N10 BAN DCT GOTOR DCT KAMPO DCT MONTO DCT MOLIN DCT HIJ
Aircraft A21N/M-SDE3FGHIRWY/LB1

Departure

Time 2026-05-06 17:33
Airport Rotterdam The Hague Airport (EHRD)

Arrival

Time 2026-05-06 20:04
Airport Seville Airport (LEZL)
Time Latitude Longitude Altitude Speed Heading
2026-05-06 16:56 51.95016 4.43506 1 ft 0 kts 326°
2026-05-06 17:26 51.95017 4.43505 1 ft 0 kts 326°
2026-05-06 17:26 51.95022 4.43501 1 ft 1 kts 326°
2026-05-06 17:26 51.95030 4.43492 1 ft 2 kts 326°
2026-05-06 17:27 51.95049 4.43484 1 ft 3 kts 12°
2026-05-06 17:27 51.95065 4.43512 1 ft 4 kts 53°
2026-05-06 17:27 51.95085 4.43558 1 ft 6 kts 56°
2026-05-06 17:27 51.95114 4.43570 1 ft 5 kts 335°
2026-05-06 17:28 51.95145 4.43538 1 ft 6 kts 326°
2026-05-06 17:28 51.95181 4.43500 1 ft 7 kts 327°
2026-05-06 17:28 51.95221 4.43458 1 ft 7 kts 327°
2026-05-06 17:28 51.95247 4.43416 1 ft 4 kts 271°
2026-05-06 17:29 51.95233 4.43373 1 ft 5 kts 237°
2026-05-06 17:29 51.95214 4.43328 1 ft 5 kts 236°
2026-05-06 17:29 51.95192 4.43275 1 ft 6 kts 236°
2026-05-06 17:29 51.95168 4.43215 1 ft 7 kts 239°
2026-05-06 17:30 51.95146 4.43146 1 ft 7 kts 244°
2026-05-06 17:30 51.95124 4.43070 1 ft 8 kts 245°
2026-05-06 17:30 51.95113 4.43032 1 ft 0 kts 247°
2026-05-06 17:31 51.95110 4.43016 1 ft 4 kts 253°
2026-05-06 17:31 51.95120 4.42946 1 ft 9 kts 307°
2026-05-06 17:31 51.95169 4.42889 1 ft 8 kts 327°
2026-05-06 17:31 51.95214 4.42850 2 ft 5 kts
2026-05-06 17:32 51.95240 4.42902 2 ft 8 kts 58°
2026-05-06 17:32 51.95342 4.43158 2 ft 61 kts 57°
2026-05-06 17:32 51.95702 4.44060 2 ft 126 kts 57°
2026-05-06 17:32 51.96261 4.45457 176 ft 158 kts 57°
2026-05-06 17:33 51.96838 4.46934 895 ft 154 kts 58°
2026-05-06 17:33 51.97404 4.48424 1451 ft 161 kts 57°
2026-05-06 17:33 51.98041 4.50074 1666 ft 184 kts 57°
2026-05-06 17:33 51.98724 4.51973 1871 ft 206 kts 62°
2026-05-06 17:34 51.99392 4.54194 2131 ft 232 kts 63°
2026-05-06 17:34 52.00080 4.56642 2792 ft 243 kts 69°
2026-05-06 17:34 52.00289 4.59384 3557 ft 252 kts 95°
2026-05-06 17:34 51.99642 4.62060 4316 ft 264 kts 124°
2026-05-06 17:35 51.98195 4.63955 4790 ft 275 kts 156°
2026-05-06 17:35 51.96307 4.64332 4901 ft 278 kts 190°
2026-05-06 17:35 51.94445 4.63466 4919 ft 280 kts 198°
2026-05-06 17:36 51.90702 4.61532 6272 ft 282 kts 197°
2026-05-06 17:36 51.88836 4.60579 7136 ft 281 kts 197°
2026-05-06 17:36 51.86955 4.59629 7893 ft 285 kts 198°
2026-05-06 17:36 51.85046 4.58668 8612 ft 289 kts 198°
2026-05-06 17:37 51.83114 4.57695 9334 ft 293 kts 198°
2026-05-06 17:37 51.81152 4.56712 10014 ft 297 kts 198°
2026-05-06 17:37 51.79111 4.55695 10261 ft 318 kts 198°
2026-05-06 17:37 51.76917 4.54607 10440 ft 339 kts 198°
2026-05-06 17:38 51.74634 4.53477 10960 ft 347 kts 198°
2026-05-06 17:38 51.72312 4.52328 11606 ft 351 kts 198°
2026-05-06 17:38 51.69969 4.51165 12263 ft 354 kts 198°
2026-05-06 17:38 51.67612 4.49994 12964 ft 356 kts 198°
2026-05-06 17:39 51.65234 4.48810 13657 ft 359 kts 198°
2026-05-06 17:39 51.62842 4.47619 14258 ft 362 kts 198°
2026-05-06 17:39 51.60431 4.46421 14875 ft 364 kts 199°
2026-05-06 17:39 51.58002 4.45219 15491 ft 366 kts 198°
2026-05-06 17:40 51.55470 4.43971 16126 ft 369 kts 198°
2026-05-06 17:40 51.53098 4.42805 16707 ft 371 kts 198°
2026-05-06 17:40 51.50622 4.41588 17309 ft 373 kts 198°
2026-05-06 17:40 51.48133 4.40364 17897 ft 376 kts 198°
2026-05-06 17:41 51.45619 4.39126 18391 ft 380 kts 198°
2026-05-06 17:41 51.43080 4.37878 18880 ft 383 kts 198°
2026-05-06 17:41 51.40538 4.36564 19367 ft 385 kts 202°
2026-05-06 17:41 51.38100 4.34788 19882 ft 386 kts 206°
2026-05-06 17:42 51.35670 4.32939 20378 ft 388 kts 206°
2026-05-06 17:42 51.33224 4.31077 20853 ft 391 kts 206°
2026-05-06 17:42 51.30767 4.29211 21348 ft 392 kts 206°
2026-05-06 17:42 51.28296 4.27333 21859 ft 394 kts 206°
2026-05-06 17:43 51.25817 4.25446 22336 ft 396 kts 206°
2026-05-06 17:43 51.23317 4.23546 22784 ft 399 kts 206°
2026-05-06 17:43 51.20802 4.21642 23260 ft 401 kts 206°
2026-05-06 17:43 51.18277 4.19734 23662 ft 403 kts 206°
2026-05-06 17:44 51.15701 4.17938 24014 ft 406 kts 200°
2026-05-06 17:44 51.13023 4.16461 24389 ft 408 kts 200°
2026-05-06 17:44 51.10336 4.14987 24789 ft 409 kts 200°
2026-05-06 17:44 51.07633 4.13512 25162 ft 411 kts 200°
2026-05-06 17:45 51.04920 4.12029 25524 ft 414 kts 200°
2026-05-06 17:45 51.02190 4.10532 25892 ft 416 kts 200°
2026-05-06 17:45 50.99456 4.09036 26282 ft 417 kts 200°
2026-05-06 17:45 50.96703 4.07533 26639 ft 419 kts 199°
2026-05-06 17:46 50.93935 4.06027 26972 ft 422 kts 200°
2026-05-06 17:46 50.91159 4.04521 27331 ft 423 kts 199°
2026-05-06 17:46 50.88361 4.03007 27686 ft 425 kts 200°
2026-05-06 17:46 50.85574 4.01419 27995 ft 427 kts 201°
2026-05-06 17:47 50.82802 3.99696 28339 ft 429 kts 202°
2026-05-06 17:47 50.80038 3.97884 28689 ft 430 kts 203°
2026-05-06 17:47 50.77270 3.96039 28978 ft 433 kts 203°
2026-05-06 17:47 50.74482 3.94191 29274 ft 435 kts 203°
2026-05-06 17:48 50.71683 3.92361 29589 ft 437 kts 202°
2026-05-06 17:48 50.68858 3.90543 29887 ft 439 kts 202°
2026-05-06 17:48 50.66021 3.88739 30147 ft 441 kts 202°
2026-05-06 17:48 50.63166 3.86933 30415 ft 443 kts 202°
2026-05-06 17:49 50.60303 3.85126 30745 ft 443 kts 202°
2026-05-06 17:49 50.57447 3.83322 31149 ft 441 kts 202°
2026-05-06 17:49 50.54619 3.81491 31589 ft 439 kts 203°
2026-05-06 17:49 50.51822 3.79602 31994 ft 437 kts 204°
2026-05-06 17:50 50.49046 3.77681 32385 ft 436 kts 204°
2026-05-06 17:50 50.46314 3.75781 32755 ft 435 kts 204°
2026-05-06 17:50 50.43550 3.73863 33128 ft 434 kts 204°
2026-05-06 17:50 50.40790 3.71963 33500 ft 433 kts 204°
2026-05-06 17:51 50.38030 3.70075 33878 ft 432 kts 204°
2026-05-06 17:51 50.35271 3.68201 34141 ft 432 kts 204°
2026-05-06 17:51 50.32503 3.66329 34326 ft 434 kts 204°
2026-05-06 17:51 50.29725 3.64457 34542 ft 435 kts 204°
2026-05-06 17:52 50.26942 3.62583 34783 ft 436 kts 204°
2026-05-06 17:52 50.24158 3.60708 35010 ft 436 kts 204°
2026-05-06 17:52 50.21374 3.58836 35253 ft 436 kts 204°
2026-05-06 17:52 50.18585 3.56959 35494 ft 436 kts 204°
2026-05-06 17:53 50.15799 3.55084 35716 ft 436 kts 204°
2026-05-06 17:53 50.13012 3.53210 35937 ft 437 kts 204°
2026-05-06 17:53 50.10218 3.51338 36146 ft 437 kts 204°
2026-05-06 17:53 50.07427 3.49476 36356 ft 437 kts 204°
2026-05-06 17:54 50.04634 3.47613 36571 ft 437 kts 204°
2026-05-06 17:54 50.01840 3.45751 36760 ft 437 kts 204°
2026-05-06 17:54 49.99040 3.43887 36894 ft 438 kts 204°
2026-05-06 17:54 49.96242 3.42021 36916 ft 438 kts 204°
2026-05-06 17:55 49.90654 3.38290 36913 ft 437 kts 204°
2026-05-06 17:55 49.85052 3.34579 36915 ft 438 kts 204°
2026-05-06 17:56 49.79443 3.30882 36914 ft 438 kts 204°
2026-05-06 17:56 49.73831 3.27182 36915 ft 438 kts 204°
2026-05-06 17:57 49.68217 3.23495 36915 ft 438 kts 204°
2026-05-06 17:57 49.62553 3.19776 36914 ft 439 kts 204°
2026-05-06 17:58 49.56989 3.16130 36918 ft 439 kts 204°
2026-05-06 17:58 49.51364 3.12461 36916 ft 439 kts 204°
2026-05-06 17:59 49.46003 3.08040 36911 ft 438 kts 214°
2026-05-06 17:59 49.40923 3.02846 36907 ft 439 kts 214°
2026-05-06 18:00 49.35830 2.97667 36908 ft 439 kts 214°
2026-05-06 18:00 49.30724 2.92504 36910 ft 440 kts 214°
2026-05-06 18:01 49.25615 2.87350 36905 ft 440 kts 214°
2026-05-06 18:01 49.20500 2.82205 36910 ft 440 kts 214°
2026-05-06 18:02 49.15379 2.77061 36929 ft 440 kts 214°
2026-05-06 18:02 49.10260 2.71929 36937 ft 440 kts 214°
2026-05-06 18:03 49.05134 2.66809 36946 ft 440 kts 213°
2026-05-06 18:03 49.00004 2.61702 36944 ft 440 kts 214°
2026-05-06 18:04 48.95740 2.57471 36949 ft 440 kts 214°
2026-05-06 18:04 48.90611 2.52374 36953 ft 440 kts 214°
2026-05-06 18:05 48.85484 2.47292 36947 ft 440 kts 214°
2026-05-06 18:05 48.80349 2.42236 36949 ft 440 kts 214°
2026-05-06 18:06 48.75216 2.37182 36948 ft 440 kts 214°
2026-05-06 18:06 48.70083 2.32128 36946 ft 440 kts 214°
2026-05-06 18:07 48.64946 2.27090 36949 ft 440 kts 214°
2026-05-06 18:07 48.59806 2.22062 36945 ft 440 kts 213°
2026-05-06 18:08 48.54228 2.18348 36931 ft 442 kts 194°
2026-05-06 18:08 48.48204 2.16412 36921 ft 443 kts 193°
2026-05-06 18:09 48.42178 2.14466 36919 ft 443 kts 194°
2026-05-06 18:09 48.36143 2.12512 36908 ft 444 kts 193°
2026-05-06 18:10 48.30081 2.10664 36912 ft 445 kts 188°
2026-05-06 18:10 48.23935 2.10914 36914 ft 447 kts 173°
2026-05-06 18:11 48.17771 2.12248 36918 ft 448 kts 173°
2026-05-06 18:11 48.11574 2.12823 36922 ft 445 kts 187°
2026-05-06 18:12 48.05436 2.11636 36928 ft 445 kts 188°
2026-05-06 18:12 47.99284 2.10453 36937 ft 446 kts 188°
2026-05-06 18:13 47.93129 2.09293 36941 ft 446 kts 188°
2026-05-06 18:13 47.86921 2.08117 36944 ft 446 kts 188°
2026-05-06 18:14 47.80814 2.06967 36927 ft 446 kts 188°
2026-05-06 18:14 47.74655 2.05795 36921 ft 446 kts 188°
2026-05-06 18:15 47.68495 2.04611 36923 ft 446 kts 188°
2026-05-06 18:15 47.62396 2.03013 36923 ft 445 kts 199°
2026-05-06 18:16 47.56624 1.99755 36926 ft 444 kts 202°
2026-05-06 18:16 47.50873 1.96410 36930 ft 444 kts 202°
2026-05-06 18:17 47.45122 1.93076 36933 ft 444 kts 202°
2026-05-06 18:17 47.39361 1.89757 36937 ft 444 kts 202°
2026-05-06 18:18 47.33601 1.86446 36950 ft 444 kts 202°
2026-05-06 18:18 47.27842 1.83142 36949 ft 444 kts 202°
2026-05-06 18:19 47.22083 1.79847 36956 ft 444 kts 202°
2026-05-06 18:19 47.16318 1.76562 36947 ft 444 kts 202°
2026-05-06 18:20 47.10545 1.73319 36950 ft 444 kts 202°
2026-05-06 18:20 47.04770 1.70084 36959 ft 444 kts 202°
2026-05-06 18:21 46.99035 1.66864 36958 ft 444 kts 202°
2026-05-06 18:21 46.93230 1.63607 36952 ft 444 kts 202°
2026-05-06 18:22 46.87459 1.60379 36947 ft 444 kts 202°
2026-05-06 18:22 46.81680 1.57164 36948 ft 444 kts 202°
2026-05-06 18:23 46.75898 1.53950 36953 ft 444 kts 202°
2026-05-06 18:23 46.70118 1.50752 36957 ft 445 kts 202°
2026-05-06 18:24 46.64372 1.47579 36962 ft 445 kts 202°
2026-05-06 18:24 46.58588 1.44385 36956 ft 445 kts 202°
2026-05-06 18:25 46.52803 1.41199 36956 ft 445 kts 202°
2026-05-06 18:25 46.47023 1.38010 36954 ft 444 kts 202°
2026-05-06 18:26 46.41236 1.34841 36957 ft 444 kts 202°
2026-05-06 18:26 46.35449 1.31680 36951 ft 444 kts 202°
2026-05-06 18:27 46.29668 1.28525 36950 ft 444 kts 202°
2026-05-06 18:27 46.23884 1.25377 36952 ft 444 kts 202°
2026-05-06 18:28 46.18095 1.22241 36951 ft 444 kts 202°
2026-05-06 18:28 46.12312 1.19104 36946 ft 444 kts 202°
2026-05-06 18:29 46.06526 1.15972 36944 ft 444 kts 202°
2026-05-06 18:29 46.00737 1.12846 36947 ft 444 kts 202°
2026-05-06 18:30 45.94945 1.09724 36940 ft 445 kts 202°
2026-05-06 18:30 45.89218 1.06648 36947 ft 445 kts 202°
2026-05-06 18:31 45.83442 1.03489 36950 ft 443 kts 207°
2026-05-06 18:31 45.78380 0.98695 36949 ft 439 kts 222°
2026-05-06 18:32 45.73674 0.93030 36933 ft 439 kts 221°
2026-05-06 18:32 45.68972 0.87437 36936 ft 439 kts 221°
2026-05-06 18:33 45.64275 0.81848 36939 ft 439 kts 221°
2026-05-06 18:33 45.59615 0.76285 36945 ft 439 kts 221°
2026-05-06 18:34 45.54920 0.70701 36937 ft 440 kts 221°
2026-05-06 18:34 45.50291 0.65216 36945 ft 440 kts 221°
2026-05-06 18:35 45.45611 0.59691 36944 ft 440 kts 221°
2026-05-06 18:35 45.40902 0.54143 36950 ft 439 kts 221°
2026-05-06 18:36 45.36192 0.48601 36955 ft 439 kts 221°
2026-05-06 18:36 45.31480 0.43070 36956 ft 439 kts 221°
2026-05-06 18:37 45.27568 0.38475 36956 ft 439 kts 221°
2026-05-06 18:37 45.22058 0.32029 36958 ft 439 kts 221°
2026-05-06 18:38 45.17335 0.26529 36955 ft 439 kts 221°
2026-05-06 18:38 45.12619 0.21039 36963 ft 439 kts 221°
2026-05-06 18:39 45.07900 0.15555 36964 ft 439 kts 221°
2026-05-06 18:40 45.00828 0.07351 36985 ft 438 kts 221°
2026-05-06 18:40 44.96104 0.01903 36973 ft 438 kts 221°
2026-05-06 18:41 44.91648 -0.03227 36982 ft 438 kts 221°
2026-05-06 18:41 44.86928 -0.08647 36987 ft 437 kts 221°
2026-05-06 18:42 44.82211 -0.14052 36992 ft 437 kts 221°
2026-05-06 18:42 44.77491 -0.19456 36991 ft 437 kts 221°
2026-05-06 18:43 44.72779 -0.24851 36994 ft 437 kts 221°
2026-05-06 18:43 44.68094 -0.30187 36996 ft 436 kts 221°
2026-05-06 18:44 44.63150 -0.35142 36996 ft 439 kts 210°
2026-05-06 18:44 44.57735 -0.39127 36993 ft 440 kts 210°
2026-05-06 18:45 44.52316 -0.43092 36998 ft 439 kts 210°
2026-05-06 18:45 44.46896 -0.47055 36999 ft 439 kts 210°
2026-05-06 18:46 44.41484 -0.51026 36992 ft 439 kts 210°
2026-05-06 18:46 44.36075 -0.54986 37006 ft 438 kts 210°
2026-05-06 18:47 44.30672 -0.58921 37012 ft 438 kts 210°
2026-05-06 18:47 44.25271 -0.62854 37016 ft 437 kts 210°
2026-05-06 18:48 44.19871 -0.66767 37011 ft 437 kts 210°
2026-05-06 18:48 44.14477 -0.70672 37021 ft 437 kts 210°
2026-05-06 18:49 44.09089 -0.74570 37021 ft 436 kts 210°
2026-05-06 18:49 44.03702 -0.78462 37023 ft 436 kts 210°
2026-05-06 18:50 43.98314 -0.82342 37010 ft 436 kts 210°
2026-05-06 18:50 43.92940 -0.86210 37023 ft 435 kts 210°
2026-05-06 18:51 43.88469 -0.89411 37030 ft 435 kts 210°
2026-05-06 18:51 43.83092 -0.93254 37034 ft 435 kts 210°
2026-05-06 18:52 43.77717 -0.97089 37044 ft 434 kts 210°
2026-05-06 18:52 43.72352 -1.00917 37045 ft 434 kts 210°
2026-05-06 18:53 43.66991 -1.04731 37043 ft 433 kts 210°
2026-05-06 18:53 43.61625 -1.08535 37033 ft 433 kts 210°
2026-05-06 18:54 43.56270 -1.12333 37037 ft 433 kts 210°
2026-05-06 18:54 43.50917 -1.16127 37040 ft 432 kts 210°
2026-05-06 18:55 43.45570 -1.19901 37040 ft 432 kts 210°
2026-05-06 18:55 43.40216 -1.23661 37031 ft 432 kts 210°
2026-05-06 18:56 43.34871 -1.27419 37039 ft 431 kts 210°
2026-05-06 18:56 43.29536 -1.31166 37047 ft 431 kts 210°
2026-05-06 18:57 43.24200 -1.34903 37050 ft 430 kts 210°
2026-05-06 18:57 43.18869 -1.38624 37042 ft 430 kts 210°
2026-05-06 18:58 43.13582 -1.42309 37052 ft 429 kts 210°
2026-05-06 18:58 43.08262 -1.46013 37042 ft 429 kts 210°
2026-05-06 18:59 43.02946 -1.49712 37040 ft 428 kts 210°
2026-05-06 18:59 42.97631 -1.53412 37038 ft 428 kts 210°
2026-05-06 19:00 42.92325 -1.57094 37038 ft 428 kts 210°
2026-05-06 19:00 42.87025 -1.60768 37020 ft 427 kts 210°
2026-05-06 19:01 42.81731 -1.64431 37020 ft 427 kts 210°
2026-05-06 19:01 42.76435 -1.68088 37017 ft 426 kts 210°
2026-05-06 19:02 42.71140 -1.71733 37015 ft 427 kts 210°
2026-05-06 19:02 42.65824 -1.75316 37017 ft 427 kts 209°
2026-05-06 19:03 42.60494 -1.78870 37021 ft 427 kts 209°
2026-05-06 19:03 42.55169 -1.82431 37013 ft 426 kts 209°
2026-05-06 19:04 42.49856 -1.85997 37013 ft 426 kts 209°
2026-05-06 19:04 42.44545 -1.89557 37016 ft 426 kts 209°
2026-05-06 19:05 42.39270 -1.93077 37015 ft 426 kts 209°
2026-05-06 19:05 42.33949 -1.96607 37006 ft 425 kts 209°
2026-05-06 19:06 42.28639 -2.00133 37013 ft 425 kts 209°
2026-05-06 19:06 42.23337 -2.03658 37013 ft 425 kts 209°
2026-05-06 19:07 42.18033 -2.07169 37017 ft 425 kts 209°
2026-05-06 19:07 42.12727 -2.10670 37010 ft 424 kts 209°
2026-05-06 19:08 42.07428 -2.14164 37017 ft 424 kts 209°
2026-05-06 19:08 42.02131 -2.17643 37017 ft 423 kts 209°
2026-05-06 19:09 41.96837 -2.21116 37011 ft 423 kts 209°
2026-05-06 19:09 41.91547 -2.24589 36997 ft 423 kts 209°
2026-05-06 19:10 41.86256 -2.28057 37008 ft 423 kts 209°
2026-05-06 19:10 41.80967 -2.31514 36998 ft 423 kts 209°
2026-05-06 19:11 41.75676 -2.34970 36996 ft 423 kts 209°
2026-05-06 19:11 41.70385 -2.38418 36980 ft 423 kts 209°
2026-05-06 19:12 41.65092 -2.41857 36978 ft 423 kts 209°
2026-05-06 19:12 41.59797 -2.45283 36972 ft 423 kts 209°
2026-05-06 19:13 41.54498 -2.48704 36972 ft 423 kts 209°
2026-05-06 19:13 41.49208 -2.52122 36963 ft 422 kts 209°
2026-05-06 19:14 41.43927 -2.55537 36969 ft 422 kts 209°
2026-05-06 19:14 41.38683 -2.58917 36969 ft 421 kts 209°
2026-05-06 19:15 41.33402 -2.62304 36967 ft 421 kts 210°
2026-05-06 19:15 41.28519 -2.66498 36954 ft 417 kts 217°
2026-05-06 19:16 41.23760 -2.70904 36961 ft 417 kts 217°
2026-05-06 19:16 41.18992 -2.75298 36956 ft 417 kts 217°
2026-05-06 19:17 41.14213 -2.79670 36957 ft 417 kts 217°
2026-05-06 19:17 41.09445 -2.84027 36945 ft 417 kts 217°
2026-05-06 19:18 41.04672 -2.88397 36964 ft 417 kts 217°
2026-05-06 19:18 40.99897 -2.92765 36956 ft 417 kts 217°
2026-05-06 19:19 40.95131 -2.97116 36953 ft 417 kts 217°
2026-05-06 19:19 40.90345 -3.01464 36947 ft 417 kts 217°
2026-05-06 19:20 40.85565 -3.05791 36936 ft 417 kts 217°
2026-05-06 19:20 40.80787 -3.10125 36943 ft 417 kts 217°
2026-05-06 19:21 40.76009 -3.14463 36941 ft 417 kts 217°
2026-05-06 19:21 40.71220 -3.18784 36928 ft 417 kts 217°
2026-05-06 19:22 40.66424 -3.23096 36935 ft 417 kts 217°
2026-05-06 19:22 40.61632 -3.27406 36939 ft 417 kts 217°
2026-05-06 19:23 40.56838 -3.31713 36934 ft 417 kts 217°
2026-05-06 19:23 40.52041 -3.36015 36928 ft 417 kts 217°
2026-05-06 19:24 40.47242 -3.40312 36930 ft 417 kts 217°
2026-05-06 19:24 40.42444 -3.44602 36936 ft 417 kts 217°
2026-05-06 19:25 40.37643 -3.48887 36914 ft 418 kts 217°
2026-05-06 19:25 40.32836 -3.53172 36924 ft 418 kts 217°
2026-05-06 19:26 40.28058 -3.57420 36920 ft 418 kts 217°
2026-05-06 19:26 40.23243 -3.61679 36923 ft 418 kts 217°
2026-05-06 19:27 40.18431 -3.65949 36913 ft 418 kts 217°
2026-05-06 19:27 40.13623 -3.70208 36911 ft 418 kts 217°
2026-05-06 19:28 40.08807 -3.74459 36915 ft 418 kts 217°
2026-05-06 19:28 40.03990 -3.78701 36911 ft 418 kts 217°
2026-05-06 19:29 39.99171 -3.82939 36916 ft 418 kts 217°
2026-05-06 19:29 39.94351 -3.87178 36894 ft 418 kts 217°
2026-05-06 19:30 39.89523 -3.91406 36899 ft 418 kts 217°
2026-05-06 19:30 39.84683 -3.95630 36903 ft 419 kts 217°
2026-05-06 19:31 39.79846 -3.99851 36907 ft 419 kts 217°
2026-05-06 19:31 39.72588 -4.06183 36895 ft 419 kts 217°
2026-05-06 19:32 39.67747 -4.10393 36903 ft 419 kts 217°
2026-05-06 19:32 39.62903 -4.14605 36908 ft 419 kts 217°
2026-05-06 19:33 39.58055 -4.18811 36905 ft 419 kts 217°
2026-05-06 19:33 39.53207 -4.22997 36905 ft 419 kts 217°
2026-05-06 19:34 39.48353 -4.27193 36887 ft 419 kts 217°
2026-05-06 19:34 39.43529 -4.31349 36895 ft 419 kts 217°
2026-05-06 19:35 39.38673 -4.35521 36898 ft 419 kts 217°
2026-05-06 19:35 39.33818 -4.39697 36899 ft 419 kts 217°
2026-05-06 19:36 39.28963 -4.43872 36898 ft 419 kts 217°
2026-05-06 19:36 39.24104 -4.48031 36895 ft 419 kts 216°
2026-05-06 19:37 39.19245 -4.52180 36900 ft 419 kts 217°
2026-05-06 19:37 39.15182 -4.55660 36904 ft 418 kts 217°
2026-05-06 19:38 39.09543 -4.60473 36895 ft 419 kts 217°
2026-05-06 19:38 39.04680 -4.64607 36893 ft 419 kts 216°
2026-05-06 19:39 39.00607 -4.68065 36869 ft 419 kts 216°
2026-05-06 19:39 38.95773 -4.72167 36876 ft 419 kts 216°
2026-05-06 19:40 38.90896 -4.76301 36818 ft 421 kts 216°
2026-05-06 19:40 38.88434 -4.78381 35887 ft 429 kts 216°
2026-05-06 19:40 38.85917 -4.80508 34900 ft 437 kts 216°
2026-05-06 19:41 38.83361 -4.82666 34059 ft 441 kts 216°
2026-05-06 19:41 38.80795 -4.84829 33189 ft 442 kts 216°
2026-05-06 19:41 38.78233 -4.86985 32512 ft 439 kts 216°
2026-05-06 19:41 38.75689 -4.89123 31900 ft 434 kts 216°
2026-05-06 19:42 38.73179 -4.91228 31366 ft 429 kts 216°
2026-05-06 19:42 38.70703 -4.93307 30849 ft 423 kts 216°
2026-05-06 19:42 38.68254 -4.95365 30377 ft 418 kts 216°
2026-05-06 19:42 38.65834 -4.97399 29808 ft 414 kts 216°
2026-05-06 19:43 38.63435 -4.99411 29176 ft 411 kts 215°
2026-05-06 19:43 38.61058 -5.01402 28549 ft 407 kts 215°
2026-05-06 19:43 38.58698 -5.03374 27934 ft 403 kts 215°
2026-05-06 19:43 38.56359 -5.05329 27287 ft 401 kts 215°
2026-05-06 19:44 38.54039 -5.07267 26761 ft 395 kts 215°
2026-05-06 19:44 38.51740 -5.09148 26302 ft 390 kts 211°
2026-05-06 19:44 38.49278 -5.10569 25831 ft 388 kts 201°
2026-05-06 19:44 38.46715 -5.11578 25356 ft 383 kts 200°
2026-05-06 19:45 38.44177 -5.12564 24889 ft 379 kts 200°
2026-05-06 19:45 38.41676 -5.13538 24430 ft 374 kts 199°
2026-05-06 19:45 38.39202 -5.14505 23979 ft 370 kts 199°
2026-05-06 19:45 38.36758 -5.15464 23530 ft 366 kts 199°
2026-05-06 19:46 38.34340 -5.16415 23022 ft 361 kts 199°
2026-05-06 19:46 38.31955 -5.17352 22572 ft 356 kts 199°
2026-05-06 19:46 38.29635 -5.18264 22139 ft 351 kts 199°
2026-05-06 19:46 38.27314 -5.19172 21699 ft 347 kts 199°
2026-05-06 19:47 38.25018 -5.20065 21257 ft 343 kts 199°
2026-05-06 19:47 38.22747 -5.20948 20816 ft 340 kts 199°
2026-05-06 19:47 38.20497 -5.21825 20375 ft 337 kts 199°
2026-05-06 19:47 38.18263 -5.22697 19943 ft 335 kts 199°
2026-05-06 19:48 38.16044 -5.23561 19500 ft 332 kts 199°
2026-05-06 19:48 38.13840 -5.24419 19069 ft 331 kts 199°
2026-05-06 19:48 38.12358 -5.24997 18782 ft 329 kts 199°
2026-05-06 19:48 38.11952 -5.25155 18716 ft 328 kts 199°
2026-05-06 19:49 38.09783 -5.26002 18297 ft 327 kts 199°
2026-05-06 19:49 38.07612 -5.26848 17821 ft 325 kts 198°
2026-05-06 19:49 38.05456 -5.27683 17398 ft 322 kts 198°
2026-05-06 19:49 38.03318 -5.28507 16971 ft 319 kts 198°
2026-05-06 19:50 38.01203 -5.29321 16586 ft 317 kts 198°
2026-05-06 19:50 37.99101 -5.30132 16169 ft 314 kts 198°
2026-05-06 19:50 37.97020 -5.30938 15782 ft 312 kts 198°
2026-05-06 19:50 37.94955 -5.31739 15401 ft 309 kts 198°
2026-05-06 19:51 37.92904 -5.32533 15009 ft 308 kts 197°
2026-05-06 19:51 37.90863 -5.33320 14648 ft 306 kts 197°
2026-05-06 19:51 37.88832 -5.34103 14250 ft 305 kts 197°
2026-05-06 19:51 37.86806 -5.34885 13848 ft 304 kts 197°
2026-05-06 19:52 37.84789 -5.35666 13445 ft 303 kts 197°
2026-05-06 19:52 37.82782 -5.36444 13033 ft 300 kts 197°
2026-05-06 19:52 37.80794 -5.37214 12650 ft 298 kts 197°
2026-05-06 19:52 37.78815 -5.37975 12270 ft 296 kts 197°
2026-05-06 19:53 37.76912 -5.38943 11892 ft 294 kts 208°
2026-05-06 19:53 37.75226 -5.40392 11499 ft 294 kts 220°
2026-05-06 19:53 37.73702 -5.42107 11111 ft 293 kts 220°
2026-05-06 19:53 37.72185 -5.43819 10723 ft 292 kts 220°
2026-05-06 19:54 37.70670 -5.45524 10333 ft 291 kts 220°
2026-05-06 19:54 37.69181 -5.47194 10086 ft 288 kts 220°
2026-05-06 19:54 37.67674 -5.48884 9993 ft 291 kts 220°
2026-05-06 19:54 37.66153 -5.50584 9871 ft 292 kts 220°
2026-05-06 19:55 37.64610 -5.52311 9563 ft 296 kts 220°
2026-05-06 19:55 37.63082 -5.54047 9060 ft 298 kts 221°
2026-05-06 19:55 37.61546 -5.55811 8386 ft 293 kts 221°
2026-05-06 19:55 37.60074 -5.57505 7706 ft 286 kts 221°
2026-05-06 19:56 37.58669 -5.59120 7580 ft 262 kts 221°
2026-05-06 19:56 37.57348 -5.60632 7471 ft 251 kts 220°
2026-05-06 19:56 37.56068 -5.62097 7388 ft 248 kts 220°
2026-05-06 19:56 37.54766 -5.63528 7127 ft 250 kts 212°
2026-05-06 19:57 37.53157 -5.64229 6695 ft 246 kts 176°
2026-05-06 19:57 37.51564 -5.63622 6334 ft 239 kts 144°
2026-05-06 19:57 37.50223 -5.62419 5970 ft 236 kts 144°
2026-05-06 19:57 37.48831 -5.61362 5614 ft 232 kts 149°
2026-05-06 19:58 37.47388 -5.60538 5286 ft 224 kts 157°
2026-05-06 19:58 37.45929 -5.59962 4978 ft 216 kts 165°
2026-05-06 19:58 37.44461 -5.59865 4688 ft 212 kts 195°
2026-05-06 19:58 37.43232 -5.60836 4422 ft 212 kts 225°
2026-05-06 19:59 37.42284 -5.62261 4026 ft 215 kts 240°
2026-05-06 19:59 37.41852 -5.64042 3706 ft 214 kts 265°
2026-05-06 19:59 37.41837 -5.65887 3440 ft 206 kts 269°
2026-05-06 19:59 37.41839 -5.67634 3162 ft 195 kts 269°
2026-05-06 20:00 37.41838 -5.69287 2904 ft 183 kts 268°
2026-05-06 20:00 37.41836 -5.70845 2673 ft 175 kts 268°
2026-05-06 20:00 37.41830 -5.72353 2432 ft 170 kts 266°
2026-05-06 20:00 37.41830 -5.73814 2180 ft 164 kts 267°
2026-05-06 20:01 37.41829 -5.75209 1966 ft 160 kts 268°
2026-05-06 20:01 37.41825 -5.76586 1753 ft 151 kts 268°
2026-05-06 20:01 37.41824 -5.77866 1580 ft 143 kts 266°
2026-05-06 20:01 37.41822 -5.79091 1392 ft 138 kts 266°
2026-05-06 20:02 37.41819 -5.80284 1235 ft 135 kts 268°
2026-05-06 20:02 37.41816 -5.81473 1055 ft 136 kts 267°
2026-05-06 20:02 37.41815 -5.82655 891 ft 135 kts 268°
2026-05-06 20:02 37.41811 -5.83830 725 ft 134 kts 267°
2026-05-06 20:03 37.41810 -5.84990 556 ft 133 kts 266°
2026-05-06 20:03 37.41806 -5.86164 361 ft 135 kts 266°
2026-05-06 20:03 37.41801 -5.87341 175 ft 133 kts 267°
2026-05-06 20:03 37.41794 -5.88456 107 ft 115 kts 270°
2026-05-06 20:04 37.41794 -5.89243 100 ft 60 kts 270°
2026-05-06 20:04 37.41794 -5.89613 98 ft 31 kts 270°
2026-05-06 20:04 37.41819 -5.89767 98 ft 15 kts 306°
2026-05-06 20:04 37.41875 -5.89816 100 ft 7 kts 335°
2026-05-06 20:05 37.41922 -5.89841 98 ft 7 kts 337°
2026-05-06 20:05 37.41968 -5.89865 97 ft 6 kts 338°
2026-05-06 20:05 37.42008 -5.89887 96 ft 6 kts 337°
2026-05-06 20:05 37.42051 -5.89909 95 ft 7 kts 337°
2026-05-06 20:06 37.42097 -5.89932 95 ft 7 kts 347°
2026-05-06 20:06 37.42138 -5.89914 94 ft 6 kts 38°
2026-05-06 20:06 37.42166 -5.89880 94 ft 5 kts 44°
2026-05-06 20:06 37.42193 -5.89854 94 ft 4 kts 17°
2026-05-06 20:07 37.42208 -5.89867 95 ft 2 kts 318°
2026-05-06 20:07 37.42219 -5.89881 77 ft 3 kts 315°
2026-05-06 20:07 37.42233 -5.89898 105 ft 3 kts 314°
2026-05-06 20:07 37.42242 -5.89909 97 ft 0 kts 315°